CW3643 Weather Reports


time (UTC)temp
C
wind
direction
speed
KPH
gust
KPH
rain 1hr
cm
rain 24hr
cm
rain mn
cm
humidity
%
barometer
mb
20180419171017 22 330 14.5 22.5 0.00 0.00 0.00 63 1017.8
20180419170019 22 340 6.4 20.9 0.00 0.00 0.00 64 1017.9
20180419165022 22 330 14.5 19.3 0.00 0.00 0.00 61 1017.8
20180419164029 23 32 3.2 14.5 0.00 0.00 0.00 61 1017.8
20180419163017 23 30 6.4 19.3 0.00 0.00 0.00 60 1017.9
20180419162021 23 345 6.4 17.7 0.00 0.00 0.00 59 1017.9
20180419161018 24 33 3.2 11.3 0.00 0.00 0.00 54 1018.1
20180419160011 24 99 6.4 9.7 0.00 0.00 0.00 53 1018.1
20180419155023 25 61 3.2 11.3 0.00 0.00 0.00 52 1018.1
20180419154014 25 98 6.4 12.9 0.00 0.00 0.00 52 1018.2
20180419153023 24 3 1.6 9.7 0.00 0.00 0.00 53 1018.3
20180419152023 25 72 6.4 11.3 0.00 0.00 0.00 53 1018.4
20180419150013 24 83 6.4 9.7 0.00 0.00 0.00 55 1018.7
20180419145024 23 43 3.2 11.3 0.00 0.00 0.00 56 1018.8
20180419143015 23 297 4.8 11.3 0.00 0.00 0.00 57 1019.0
20180419142026 23 117 6.4 12.9 0.00 0.00 0.00 59 1019.1
20180419140027 22 84 4.8 12.9 0.00 0.00 0.00 59 1019.3
20180419135018 23 129 8.0 14.5 0.00 0.00 0.00 57 1019.4
20180419133020 22 80 6.4 14.5 0.00 0.00 0.00 58 1019.5
20180419132013 22 94 6.4 14.5 0.00 0.00 0.00 59 1019.6
20180419130025 22 99 12.9 22.5 0.00 0.00 0.00 62 1019.7
20180419125024 21 154 11.3 19.3 0.00 0.00 0.00 63 1019.7
20180419123018 21 119 12.9 20.9 0.00 0.00 0.00 64 1020.1
20180419122011 21 49 9.7 17.7 0.00 0.00 0.00 65 1020.2
20180419121027 21 124 6.4 16.1 0.00 0.00 0.00 65 1020.3
20180419120018 21 115 6.4 14.5 0.00 0.00 0.00 65 1020.3
20180419115028 20 62 8.0 20.9 0.00 0.00 0.00 65 1020.5
20180419114016 20 150 8.0 22.5 0.00 0.00 0.00 65 1020.5
20180419113028 20 152 8.0 16.1 0.00 0.00 0.00 66 1020.7
20180419112017 20 130 9.7 16.1 0.00 0.00 0.00 65 1020.8
20180419111012 20 154 6.4 14.5 0.00 0.00 0.00 65 1020.9
20180419110024 20 353 8.0 19.3 0.00 0.00 0.00 65 1021.0
20180419105028 19 70 4.8 16.1 0.00 0.00 0.00 65 1021.1
20180419104024 18 48 9.7 14.5 0.00 0.00 0.00 65 1021.2
20180419103020 18 72 4.8 12.9 0.00 0.00 0.00 68 1021.2
20180419102027 18 91 9.7 14.5 0.00 0.00 0.00 71 1021.2
20180419101022 17 343 3.2 11.3 0.00 0.00 0.00 74 1021.3
20180419100027 17 94 6.4 11.3 0.00 0.00 0.00 74 1021.5
20180419095024 17 44 4.8 14.5 0.00 0.00 0.00 74 1021.6
20180419094022 17 77 8.0 12.9 0.00 0.00 0.00 74 1021.6
20180419093025 17 82 4.8 11.3 0.00 0.00 0.00 72 1021.5
20180419092028 17 41 3.2 11.3 0.00 0.00 0.00 71 1021.5
20180419091021 17 190 1.6 8.0 0.00 0.00 0.00 69 1021.5
20180419090021 17 106 1.6 9.7 0.00 0.00 0.00 69 1021.5
20180419085017 17 66 6.4 9.7 0.00 0.00 0.00 69 1021.6
20180419084019 17 57 6.4 9.7 0.00 0.00 0.00 68 1021.7
20180419083013 16 26 4.8 8.0 0.00 0.00 0.00 68 1021.6
20180419082016 16 56 4.8 6.4 0.00 0.00 0.00 71 1021.6
20180419081015 16 103 0.0 3.2 0.00 0.00 0.00 77 1021.6
20180419080022 16 103 0.0 0.0 0.00 0.00 0.00 79 1021.7
20180419075015 15 103 0.0 4.8 0.00 0.00 0.00 79 1021.8
20180419074021 15 103 0.0 4.8 0.00 0.00 0.00 80 1021.7
20180419073025 15 103 3.2 6.4 0.00 0.00 0.00 81 1021.7
20180419072022 15 13 0.0 0.0 0.00 0.00 0.00 81 1021.6
20180419071019 15 13 0.0 0.0 0.00 0.00 0.00 82 1021.6
20180419070024 14 13 0.0 3.2 0.00 0.00 0.00 82 1021.6
20180419065015 14 13 1.6 6.4 0.00 0.00 0.00 80 1021.6
20180419064028 14 13 1.6 6.4 0.00 0.00 0.00 77 1021.5
20180419063018 14 13 0.0 4.8 0.00 0.00 0.00 76 1021.5
20180419062041 14 13 1.6 6.4 0.00 0.00 0.00 75 1021.4
20180419060024 13 11 4.8 8.0 0.00 0.00 0.00 71 1021.4
20180419055019 13 22 4.8 8.0 0.00 0.00 0.00 70 1021.4
20180419054028 14 24 4.8 8.0 0.00 0.00 0.00 68 1021.3
20180419053021 15 345 0.0 0.0 0.00 0.00 0.00 66 1021.4
20180419052020 15 345 0.0 6.4 0.00 0.00 0.00 65 1021.3
20180419051030 15 345 0.0 0.0 0.00 0.00 0.00 65 1021.4
20180419050024 15 345 0.0 0.0 0.00 0.00 0.00 66 1021.3
20180419045021 15 345 0.0 0.0 0.00 0.00 0.00 66 1021.3
20180419044023 15 345 0.0 0.0 0.00 0.00 0.00 66 1021.3
20180419043012 15 345 0.0 0.0 0.00 0.00 0.00 66 1021.4
20180419042022 15 345 0.0 0.0 0.00 0.00 0.00 66 1021.5
20180419041017 15 345 0.0 0.0 0.00 0.00 0.00 66 1021.5
20180419040035 15 345 0.0 0.0 0.00 0.00 0.00 66 1021.6
20180419035012 15 345 0.0 0.0 0.00 0.00 0.00 66 1021.6
20180419034026 15 345 0.0 0.0 0.00 0.00 0.00 66 1021.7
20180419033024 15 345 0.0 0.0 0.00 0.00 0.00 67 1021.8
20180419031029 15 345 0.0 4.8 0.00 0.00 0.00 68 1021.9
20180419030024 15 345 3.2 4.8 0.00 0.00 0.00 69 1021.9
20180419025026 15 345 3.2 4.8 0.00 0.00 0.00 69 1022.0
20180419023013 15 342 6.4 9.7 0.00 0.00 0.00 70 1022.1
20180419022026 14 334 6.4 9.7 0.00 0.00 0.00 71 1022.2
20180419021022 14 340 6.4 9.7 0.00 0.00 0.00 72 1022.3
20180419020016 14 354 4.8 8.0 0.00 0.00 0.00 73 1022.3
20180419015014 14 351 3.2 8.0 0.00 0.00 0.00 73 1022.3
20180419014023 14 348 3.2 6.4 0.00 0.00 0.00 73 1022.5
20180419013013 14 347 1.6 8.0 0.00 0.00 0.00 73 1022.6
20180419012015 15 340 6.4 8.0 0.00 0.00 0.00 73 1022.8
20180419011014 15 343 6.4 9.7 0.00 0.00 0.00 74 1023.0
20180419010024 15 343 1.6 8.0 0.00 0.00 0.00 74 1023.2
20180419005024 15 21 0.0 3.2 0.00 0.00 0.00 74 1023.3
20180419004022 15 21 0.0 1.6 0.00 0.00 0.00 74 1023.4
20180419003011 15 21 0.0 8.0 0.00 0.00 0.00 74 1023.4
20180419002026 15 314 1.6 8.0 0.00 0.00 0.00 74 1023.5
20180419001023 15 322 6.4 8.0 0.00 0.00 0.00 74 1023.5
20180419000016 15 3 0.0 6.4 0.00 0.00 0.00 74 1023.5
20180418234017 15 347 4.8 14.5 0.00 0.00 0.00 74 1023.4
20180418233028 15 335 8.0 14.5 0.00 0.00 0.00 74 1023.3
20180418232011 15 9 9.7 14.5 0.00 0.00 0.00 73 1023.4
20180418231029 15 11 9.7 16.1 0.00 0.00 0.00 73 1023.3
20180418230012 15 299 11.3 20.9 0.00 0.00 0.00 73 1023.4
20180418225036 15 338 8.0 24.1 0.00 0.00 0.00 72 1023.4
20180418224013 16 345 12.9 22.5 0.00 0.00 0.00 72 1023.5
20180418223019 16 262 11.3 19.3 0.00 0.00 0.00 71 1023.6
20180418222028 16 330 11.3 19.3 0.00 0.00 0.00 71 1023.6
20180418221017 16 341 16.1 20.9 0.00 0.00 0.00 71 1023.7
20180418220028 16 335 11.3 17.7 0.00 0.00 0.00 71 1023.7
20180418214024 16 336 12.9 14.5 0.00 0.00 0.00 68 1023.7
20180418213025 16 325 9.7 14.5 0.00 0.00 0.00 67 1023.8
20180418212027 16 326 11.3 14.5 0.00 0.00 0.00 66 1023.8
20180418211021 17 294 9.7 19.3 0.00 0.00 0.00 65 1023.6
20180418210019 17 279 14.5 17.7 0.00 0.00 0.00 65 1023.7
20180418205021 17 303 9.7 14.5 0.00 0.00 0.00 64 1023.6
20180418204027 17 317 12.9 20.9 0.00 0.00 0.00 63 1023.6
20180418203012 17 309 11.3 17.7 0.00 0.00 0.00 61 1023.4
20180418202020 17 305 12.9 17.7 0.00 0.00 0.00 60 1023.2
20180418201029 18 305 9.7 17.7 0.00 0.00 0.00 58 1023.0
20180418200014 18 298 12.9 17.7 0.00 0.00 0.00 56 1022.9
20180418195011 18 313 8.0 16.1 0.00 0.00 0.00 56 1022.7
20180418194016 18 320 12.9 22.5 0.00 0.00 0.00 55 1022.7
20180418193024 19 337 14.5 24.1 0.00 0.00 0.00 53 1022.5
20180418192048 20 332 14.5 24.1 0.00 0.00 0.00 52 1022.4
20180418191028 20 324 14.5 19.3 0.00 0.00 0.00 54 1022.4
20180418190026 20 320 14.5 17.7 0.00 0.00 0.00 53 1022.2
20180418185018 20 318 9.7 16.1 0.00 0.00 0.00 53 1022.1
20180418184020 21 337 9.7 16.1 0.00 0.00 0.00 52 1022.1
20180418183030 21 325 11.3 17.7 0.00 0.00 0.00 52 1022.1
20180418182027 21 326 9.7 16.1 0.00 0.00 0.00 52 1022.2
20180418181013 21 334 9.7 16.1 0.00 0.00 0.00 51 1022.0
20180418180018 21 307 11.3 17.7 0.00 0.00 0.00 51 1021.9
20180418175029 21 337 9.7 19.3 0.00 0.00 0.00 51 1021.8
20180418174112 21 334 12.9 19.3 0.00 0.00 0.00 51 1021.8
20180418173013 22 336 12.9 19.3 0.00 0.00 0.00 50 1021.9
20180418172023 22 337 11.3 20.9 0.00 0.00 0.00 49 1021.9